When you browse on this site, cookies collect data to enhance your experience and personalize the content and advertising you see.
Visit our Privacy Policy to learn more. By continuing to use the site, you agree to this use of cookies and data.
  • In Österreich
  • Länderverzeichnis
  • Für 7 Tage
  • Wassertemperatur
  • Wetterkarte
  • News
  • Widgets
  • user-avatar
    Anmelden

    Stündliche Wetter Tepatepec

    Heute, 13 Dezember, Freitag

    Zeit Temperatur Niederschläge Wind Luftdruck Luftfeuchtigkeit
    00:00 +13°C° 0 mm 1 m/S 601 mmHg 75%
    01:00 +13°C° 0 mm 1 m/S 601 mmHg 74%
    02:00 +12°C° 0 mm 1 m/S 600 mmHg 74%
    03:00 +12°C° 0 mm 1 m/S 600 mmHg 74%
    04:00 +11°C° 0 mm 0 m/S 600 mmHg 74%
    05:00 +10°C° 0 mm 0 m/S 600 mmHg 75%
    06:00 +13°C° 0 mm 1 m/S 601 mmHg 66%
    07:00 +15°C° 0 mm 1 m/S 602 mmHg 58%
    08:00 +18°C° 0 mm 1 m/S 603 mmHg 49%
    09:00 +20°C° 0 mm 1 m/S 603 mmHg 43%
    10:00 +21°C° 0 mm 1 m/S 604 mmHg 38%
    11:00 +23°C° 0 mm 1 m/S 604 mmHg 32%
    12:00 +23°C° 0 mm 2 m/S 603 mmHg 30%
    13:00 +24°C° 0 mm 3 m/S 603 mmHg 28%
    14:00 +24°C° 0 mm 3 m/S 602 mmHg 25%
    15:00 +22°C° 0 mm 3 m/S 602 mmHg 30%
    16:00 +20°C° 0 mm 3 m/S 601 mmHg 34%
    17:00 +18°C° 0 mm 2 m/S 601 mmHg 39%
    18:00 +17°C° 0 mm 2 m/S 601 mmHg 50%
    19:00 +16°C° 0 mm 2 m/S 601 mmHg 62%
    20:00 +15°C° 0 mm 2 m/S 601 mmHg 73%
    21:00 +14°C° 0 mm 1 m/S 601 mmHg 76%
    22:00 +14°C° 0 mm 1 m/S 601 mmHg 78%
    23:00 +12°C° 0 mm 0 m/S 601 mmHg 80%

    Morgen, 14 Dezember, Samstag

    Zeit Temperatur Niederschläge Wind Luftdruck Luftfeuchtigkeit
    00:00 +11°C° 0 mm 0 m/S 600 mmHg 80%
    01:00 +11°C° 0 mm 0 m/S 599 mmHg 80%
    02:00 +10°C° 0 mm 0 m/S 599 mmHg 80%
    03:00 +10°C° 0 mm 0 m/S 599 mmHg 80%
    04:00 +10°C° 0 mm 0 m/S 599 mmHg 80%
    05:00 +10°C° 0 mm 1 m/S 599 mmHg 80%
    06:00 +12°C° 0 mm 1 m/S 600 mmHg 72%
    07:00 +14°C° 0 mm 1 m/S 601 mmHg 63%
    08:00 +16°C° 0 mm 1 m/S 602 mmHg 54%
    09:00 +19°C° 0 mm 1 m/S 602 mmHg 44%
    10:00 +18°C° 0 mm 0 m/S 603 mmHg 34%
    11:00 +20°C° 0 mm 0 m/S 603 mmHg 24%
    12:00 +21°C° 0 mm 0 m/S 602 mmHg 22%
    13:00 +24°C° 0 mm 1 m/S 602 mmHg 20%
    14:00 +24°C° 0 mm 1 m/S 602 mmHg 17%
    15:00 +22°C° 0 mm 1 m/S 601 mmHg 21%
    16:00 +21°C° 0 mm 1 m/S 600 mmHg 25%
    17:00 +19°C° 0 mm 1 m/S 599 mmHg 29%
    18:00 +18°C° 0 mm 1 m/S 599 mmHg 34%
    19:00 +16°C° 0 mm 1 m/S 599 mmHg 38%
    20:00 +15°C° 0 mm 1 m/S 599 mmHg 43%
    21:00 +14°C° 0 mm 1 m/S 599 mmHg 43%
    22:00 +14°C° 0 mm 1 m/S 599 mmHg 42%
    23:00 +13°C° 0 mm 1 m/S 599 mmHg 42%

    übermorgen, 15 Dezember, Sonntag

    Zeit Temperatur Niederschläge Wind Luftdruck Luftfeuchtigkeit
    00:00 +13°C° 0 mm 1 m/S 599 mmHg 42%
    01:00 +13°C° 0 mm 1 m/S 598 mmHg 42%
    02:00 +12°C° 0 mm 1 m/S 598 mmHg 42%
    03:00 +12°C° 0 mm 1 m/S 598 mmHg 45%
    04:00 +11°C° 0 mm 1 m/S 598 mmHg 47%
    05:00 +11°C° 0 mm 1 m/S 598 mmHg 50%
    06:00 +13°C° 0 mm 1 m/S 599 mmHg 47%
    07:00 +15°C° 0 mm 1 m/S 600 mmHg 44%
    08:00 +18°C° 0 mm 1 m/S 601 mmHg 41%
    09:00 +19°C° 0 mm 1 m/S 602 mmHg 36%
    10:00 +21°C° 0 mm 1 m/S 602 mmHg 31%
    11:00 +23°C° 0 mm 1 m/S 602 mmHg 25%
    12:00 +24°C° 0 mm 1 m/S 602 mmHg 23%
    13:00 +24°C° 0 mm 2 m/S 602 mmHg 21%
    14:00 +25°C° 0 mm 2 m/S 601 mmHg 19%
    15:00 +23°C° 0 mm 2 m/S 600 mmHg 23%
    16:00 +21°C° 0 mm 1 m/S 600 mmHg 28%
    17:00 +20°C° 0 mm 1 m/S 599 mmHg 32%
    18:00 +19°C° 0 mm 1 m/S 599 mmHg 36%
    19:00 +18°C° 0 mm 1 m/S 600 mmHg 39%
    20:00 +15°C° 0 mm 0 m/S 600 mmHg 43%
    21:00 +16°C° 0 mm 1 m/S 600 mmHg 45%
    22:00 +15°C° 0 mm 1 m/S 600 mmHg 47%
    23:00 +15°C° 0 mm 1 m/S 599 mmHg 48%

    16 Dezember, Montag

    Zeit Temperatur Niederschläge Wind Luftdruck Luftfeuchtigkeit
    00:00 +14°C° 0 mm 1 m/S 599 mmHg 53%
    01:00 +14°C° 0 mm 1 m/S 599 mmHg 58%
    02:00 +13°C° 0 mm 1 m/S 598 mmHg 62%
    03:00 +13°C° 0 mm 1 m/S 598 mmHg 66%
    04:00 +12°C° 0 mm 1 m/S 598 mmHg 69%
    05:00 +12°C° 0 mm 1 m/S 598 mmHg 73%
    06:00 +13°C° 0 mm 1 m/S 599 mmHg 67%
    07:00 +15°C° 0 mm 1 m/S 600 mmHg 60%
    08:00 +18°C° 0 mm 1 m/S 601 mmHg 54%
    09:00 +19°C° 0 mm 1 m/S 602 mmHg 49%
    10:00 +21°C° 0 mm 1 m/S 602 mmHg 43%
    11:00 +22°C° 0 mm 1 m/S 602 mmHg 38%
    12:00 +23°C° 0 mm 1 m/S 602 mmHg 34%
    13:00 +24°C° 0 mm 1 m/S 601 mmHg 31%
    14:00 +25°C° 0 mm 1 m/S 601 mmHg 28%
    15:00 +23°C° 0 mm 1 m/S 601 mmHg 32%
    16:00 +21°C° 0 mm 2 m/S 601 mmHg 36%
    17:00 +19°C° 0 mm 2 m/S 600 mmHg 40%
    18:00 +18°C° 0 mm 2 m/S 600 mmHg 46%
    19:00 +17°C° 0 mm 2 m/S 601 mmHg 52%
    20:00 +16°C° 0 mm 1 m/S 601 mmHg 58%
    21:00 +16°C° 0 mm 1 m/S 601 mmHg 59%
    22:00 +15°C° 0 mm 1 m/S 600 mmHg 60%
    23:00 +14°C° 0 mm 1 m/S 600 mmHg 62%

    17 Dezember, Dienstag

    Zeit Temperatur Niederschläge Wind Luftdruck Luftfeuchtigkeit
    00:00 +14°C° 0 mm 1 m/S 600 mmHg 63%
    01:00 +13°C° 0 mm 1 m/S 600 mmHg 65%
    02:00 +13°C° 0 mm 1 m/S 599 mmHg 67%
    03:00 +12°C° 0 mm 1 m/S 599 mmHg 69%
    04:00 +12°C° 0 mm 1 m/S 599 mmHg 70%
    05:00 +11°C° 0 mm 1 m/S 599 mmHg 72%
    06:00 +12°C° 0 mm 1 m/S 600 mmHg 68%
    07:00 +13°C° 0 mm 1 m/S 601 mmHg 65%
    08:00 +14°C° 0 mm 1 m/S 602 mmHg 61%
    09:00 +16°C° 0 mm 2 m/S 602 mmHg 58%
    10:00 +17°C° 0 mm 2 m/S 603 mmHg 54%
    11:00 +19°C° 0 mm 2 m/S 603 mmHg 50%
    12:00 +19°C° 0 mm 3 m/S 603 mmHg 51%
    13:00 +19°C° 0 mm 3 m/S 602 mmHg 51%
    14:00 +20°C° 0 mm 3 m/S 602 mmHg 52%
    15:00 +18°C° 0 mm 4 m/S 602 mmHg 61%
    16:00 +17°C° 0 mm 4 m/S 601 mmHg 70%
    17:00 +14°C° 0 mm 4 m/S 601 mmHg 79%
    18:00 +13°C° 0 mm 4 m/S 602 mmHg 81%
    19:00 +13°C° 0 mm 3 m/S 602 mmHg 83%
    20:00 +12°C° 0 mm 3 m/S 603 mmHg 85%
    21:00 +12°C° 0 mm 3 m/S 603 mmHg 85%
    22:00 +13°C° 0 mm 2 m/S 603 mmHg 84%
    23:00 +13°C° 0 mm 2 m/S 603 mmHg 84%

    18 Dezember, Mittwoch

    Zeit Temperatur Niederschläge Wind Luftdruck Luftfeuchtigkeit
    00:00 +12°C° 0 mm 2 m/S 603 mmHg 85%
    01:00 +12°C° 0 mm 2 m/S 603 mmHg 86%
    02:00 +12°C° 0 mm 2 m/S 602 mmHg 87%
    03:00 +12°C° 0 mm 2 m/S 603 mmHg 87%
    04:00 +10°C° 0 mm 2 m/S 603 mmHg 86%
    05:00 +10°C° 0 mm 2 m/S 603 mmHg 86%
    06:00 +10°C° 0 mm 2 m/S 604 mmHg 85%
    07:00 +10°C° 0 mm 3 m/S 604 mmHg 84%
    08:00 +10°C° 0 mm 3 m/S 604 mmHg 82%
    09:00 +11°C° 0 mm 3 m/S 604 mmHg 79%
    10:00 +11°C° 0 mm 3 m/S 605 mmHg 75%
    11:00 +12°C° 0 mm 3 m/S 605 mmHg 72%
    12:00 +12°C° 0 mm 3 m/S 604 mmHg 72%
    13:00 +12°C° 0 mm 4 m/S 603 mmHg 72%
    14:00 +12°C° 0 mm 4 m/S 603 mmHg 72%
    15:00 +11°C° 0 mm 4 m/S 603 mmHg 75%
    16:00 +10°C° 0 mm 3 m/S 602 mmHg 78%
    17:00 +9°C° 0 mm 3 m/S 602 mmHg 81%
    18:00 +9°C° 0 mm 3 m/S 603 mmHg 82%
    19:00 +9°C° 0 mm 3 m/S 603 mmHg 84%
    20:00 +8°C° 0 mm 2 m/S 603 mmHg 85%
    21:00 +8°C° 0 mm 2 m/S 603 mmHg 85%
    22:00 +8°C° 0 mm 2 m/S 603 mmHg 85%
    23:00 +8°C° 0 mm 2 m/S 603 mmHg 85%
    Mehr zeigen